Regional Weather Roundup
Issued by NWS

Home | Current Version | Previous Version | Graphics & Text | Print | Product List | Glossary On
Versions: 1 2 3 4 5 6 7 8 9 10 11 12 13 14 15 16 17 18 19 20 21 22 23 24 25 26 27 28 29 30 31 32 33 34 35 36 37 38 39 40 41 42 43 44 45 46 47 48 49 50
000
ASUS43 KLMK 192110
RWRKY
KENTUCKY REGIONAL WEATHER ROUNDUP
NATIONAL WEATHER SERVICE LOUISVILLE KY
400 PM EST FRI DEC 19 2014

NOTE "FAIR" INDICATES FEW OR NO CLOUDS BELOW 12,000 FEET
WITH NO SIGNIFICANT WEATHER AND/OR OBSTRUCTIONS TO VISIBILITY.

KYZ001>023-026-027-061>063-070>075-192200-
WESTERN AND SOUTH CENTRAL KENTUCKY

CITY           SKY/WX    TMP DP  RH WIND       PRES   REMARKS
PADUCAH        PTSUNNY   41  29  62 VRB3      30.25F
HENDERSON      PTSUNNY   37  25  60 NW6       30.29S WCI  33
OWENSBORO      MOSUNNY   38  26  62 NW6       30.29S WCI  33
HOPKINSVILLE   PTSUNNY   38  29  69 N3        30.24F
BOWLING GREEN  PTSUNNY   40  27  59 CALM      30.26F
GLASGOW        MOSUNNY   39  25  57 CALM      30.25S
$$

KYZ024-025-028>034-038-045-046-053-192200-
NORTH CENTRAL KENTUCKY

CITY           SKY/WX    TMP DP  RH WIND       PRES   REMARKS
LOUISVILLE/SDF CLOUDY    36  22  56 N6        30.28R WCI  31
LOUISVILLE/LOU MOSUNNY   35  23  61 CALM      30.29R
FORT KNOX      MOSUNNY   37  23  57 VRB3      30.25R
$$

KYZ035>037-039>044-047>052-055>060-089>105-192200-
NORTHEAST KENTUCKY

CITY           SKY/WX    TMP DP  RH WIND       PRES   REMARKS
LEXINGTON      PTSUNNY   33  23  66 NE3       30.25R
COVINGTON      CLOUDY    31  18  58 CALM      30.25S
FRANKFORT      PTSUNNY   33  22  63 SE3       30.25R
$$

KYZ054-064>069-076>088-106>120-192200-
SOUTHEAST KENTUCKY

CITY           SKY/WX    TMP DP  RH WIND       PRES   REMARKS
JACKSON        PTSUNNY   36  22  56 CALM      30.19R
LONDON         CLOUDY    40  25  55 N3        30.20R
SOMERSET       PTSUNNY   36  27  69 N5        30.24R WCI  32
MIDDLESBORO    CLOUDY    42  27  53 N5        30.18R
MONTICELLO     CLOUDY    39  28  65 CALM      30.25R
$$



USA.gov is the U.S. government's official web portal to all federal, state and local government web resources and services.